Location: Ecklingerode
(51.5036°N, 10.3122°E)
Time: 07:41:30
(UTC+00:00)

NOSS 3-4 (A) - Pass Details

Date: 29 October 2020
Orbit: 882 x 1330 km, 63.4° (Epoch: 28 November)

Event Time Altitude Azimuth Distance (km) Brightness Sun altitude
Rises 17:52:13 0° 313° (NW) 3,744 7.3 -18.5°
Reaches altitude 10° 17:54:43 10° 316° (NW) 2,850 6.6 -18.9°
Maximum altitude 18:01:31 73° 41° (NE) 1,175 3.7 -19.9°
Enters shadow 18:05:39 29° 121° (ESE) 2,014 4.6 -20.6°
